BKP123 VTBS-VTSM

Flight info

Callsign BKP123
Flight time 0h 41m
Altitude 33000
Route KASNI1E KASNI M757 MABKO W33 UPNEP
Aircraft A319/M-SDE3FGHIRWY/LB1

Departure

Time 2026-04-10 21:54
Airport Suvarnabhumi Airport (VTBS)

Arrival

Time 2026-04-10 22:35
Airport Samui International Airport (VTSM)
Time Latitude Longitude Altitude Speed Heading
2026-04-10 21:31 13.69444 100.75577 13 ft 0 kts 284°
2026-04-10 21:48 13.69444 100.75578 13 ft 1 kts 284°
2026-04-10 21:48 13.69440 100.75593 15 ft 3 kts 285°
2026-04-10 21:48 13.69434 100.75614 14 ft 3 kts 285°
2026-04-10 21:49 13.69429 100.75634 13 ft 3 kts 283°
2026-04-10 21:49 13.69425 100.75654 13 ft 3 kts 274°
2026-04-10 21:49 13.69426 100.75673 13 ft 3 kts 239°
2026-04-10 21:49 13.69433 100.75681 13 ft 1 kts 194°
2026-04-10 21:50 13.69446 100.75685 14 ft 1 kts 194°
2026-04-10 21:50 13.69447 100.75685 14 ft 0 kts 194°
2026-04-10 21:50 13.69431 100.75681 13 ft 5 kts 194°
2026-04-10 21:50 13.69412 100.75687 14 ft 1 kts 54°
2026-04-10 21:51 13.69454 100.75685 13 ft 10 kts 12°
2026-04-10 21:51 13.69508 100.75698 13 ft 14 kts 13°
2026-04-10 21:51 13.69554 100.75772 13 ft 17 kts 111°
2026-04-10 21:51 13.69510 100.75905 15 ft 22 kts 104°
2026-04-10 21:52 13.69409 100.75978 13 ft 24 kts 194°
2026-04-10 21:52 13.69277 100.75943 13 ft 15 kts 194°
2026-04-10 21:52 13.69219 100.75939 15 ft 9 kts 150°
2026-04-10 21:52 13.69194 100.76012 12 ft 14 kts 105°
2026-04-10 21:53 13.69120 100.76090 12 ft 19 kts 176°
2026-04-10 21:53 13.69084 100.76083 12 ft 2 kts 194°
2026-04-10 21:53 13.69082 100.76083 12 ft 0 kts 194°
2026-04-10 21:53 13.69073 100.76080 12 ft 4 kts 194°
2026-04-10 21:54 13.68853 100.76022 15 ft 67 kts 194°
2026-04-10 21:54 13.68160 100.75840 32 ft 139 kts 194°
2026-04-10 21:54 13.67210 100.75597 620 ft 143 kts 193°
2026-04-10 21:54 13.66219 100.75448 1011 ft 151 kts 184°
2026-04-10 21:55 13.65081 100.75393 1133 ft 180 kts 182°
2026-04-10 21:55 13.63744 100.75338 1383 ft 205 kts 183°
2026-04-10 21:55 13.62266 100.75278 1985 ft 216 kts 184°
2026-04-10 21:55 13.60749 100.75224 2767 ft 221 kts 182°
2026-04-10 21:56 13.59156 100.75504 3237 ft 246 kts 168°
2026-04-10 21:56 13.57449 100.76001 3854 ft 260 kts 166°
2026-04-10 21:56 13.55696 100.76545 4693 ft 265 kts 165°
2026-04-10 21:56 13.53913 100.77097 5507 ft 270 kts 165°
2026-04-10 21:57 13.52088 100.77648 6299 ft 276 kts 165°
2026-04-10 21:57 13.50252 100.78192 7047 ft 281 kts 165°
2026-04-10 21:57 13.48359 100.78742 7832 ft 285 kts 165°
2026-04-10 21:57 13.46438 100.79295 8646 ft 288 kts 165°
2026-04-10 21:58 13.44491 100.79844 9449 ft 292 kts 168°
2026-04-10 21:58 13.42453 100.79943 10073 ft 301 kts 189°
2026-04-10 21:58 13.40371 100.79325 10280 ft 323 kts 200°
2026-04-10 21:58 13.38172 100.78535 10427 ft 346 kts 200°
2026-04-10 21:59 13.35833 100.77687 10614 ft 365 kts 200°
2026-04-10 21:59 13.33414 100.76813 11089 ft 372 kts 200°
2026-04-10 21:59 13.30960 100.75934 11642 ft 376 kts 200°
2026-04-10 21:59 13.28474 100.75050 12187 ft 380 kts 200°
2026-04-10 22:00 13.25964 100.74161 12729 ft 384 kts 200°
2026-04-10 22:00 13.23424 100.73266 13267 ft 388 kts 200°
2026-04-10 22:00 13.20862 100.72361 13782 ft 391 kts 200°
2026-04-10 22:00 13.18283 100.71447 14246 ft 394 kts 200°
2026-04-10 22:01 13.15676 100.70521 14743 ft 397 kts 200°
2026-04-10 22:01 13.13053 100.69593 15232 ft 400 kts 200°
2026-04-10 22:01 13.10413 100.68662 15731 ft 403 kts 199°
2026-04-10 22:01 13.07684 100.67958 16205 ft 407 kts 189°
2026-04-10 22:02 13.04849 100.67741 16709 ft 410 kts 182°
2026-04-10 22:02 13.01986 100.67671 17219 ft 413 kts 181°
2026-04-10 22:02 12.99100 100.67598 17733 ft 416 kts 181°
2026-04-10 22:02 12.96196 100.67522 18232 ft 419 kts 181°
2026-04-10 22:03 12.93276 100.67444 18657 ft 421 kts 181°
2026-04-10 22:03 12.90332 100.67365 19085 ft 424 kts 181°
2026-04-10 22:03 12.87383 100.67285 19522 ft 425 kts 181°
2026-04-10 22:03 12.84414 100.67207 19929 ft 428 kts 181°
2026-04-10 22:04 12.81428 100.67130 20326 ft 430 kts 181°
2026-04-10 22:04 12.78424 100.67055 20719 ft 433 kts 181°
2026-04-10 22:04 12.75409 100.66980 21096 ft 435 kts 181°
2026-04-10 22:04 12.72377 100.66901 21444 ft 437 kts 181°
2026-04-10 22:05 12.69328 100.66820 21816 ft 439 kts 181°
2026-04-10 22:05 12.66268 100.66738 22157 ft 441 kts 181°
2026-04-10 22:05 12.63190 100.66657 22481 ft 444 kts 181°
2026-04-10 22:05 12.60093 100.66575 22815 ft 446 kts 181°
2026-04-10 22:06 12.56983 100.66493 23143 ft 448 kts 181°
2026-04-10 22:06 12.53858 100.66409 23455 ft 451 kts 181°
2026-04-10 22:06 12.50715 100.66325 23730 ft 452 kts 181°
2026-04-10 22:06 12.47561 100.66243 23982 ft 454 kts 181°
2026-04-10 22:07 12.44393 100.66163 24225 ft 456 kts 181°
2026-04-10 22:07 12.41216 100.66085 24482 ft 458 kts 180°
2026-04-10 22:07 12.38019 100.66003 24720 ft 460 kts 181°
2026-04-10 22:08 12.31591 100.65839 25187 ft 464 kts 180°
2026-04-10 22:08 12.28358 100.65757 25416 ft 466 kts 180°
2026-04-10 22:08 12.25155 100.65674 25642 ft 468 kts 180°
2026-04-10 22:08 12.21896 100.65587 25875 ft 469 kts 180°
2026-04-10 22:09 12.18580 100.65496 26102 ft 471 kts 179°
2026-04-10 22:09 12.15292 100.65408 26327 ft 473 kts 180°
2026-04-10 22:09 12.11995 100.65322 26567 ft 475 kts 180°
2026-04-10 22:09 12.08686 100.65236 26766 ft 477 kts 180°
2026-04-10 22:10 12.05366 100.65149 27001 ft 478 kts 180°
2026-04-10 22:10 12.02035 100.65061 27218 ft 480 kts 179°
2026-04-10 22:10 11.98689 100.64974 27428 ft 482 kts 180°
2026-04-10 22:10 11.95332 100.64891 27643 ft 483 kts 180°
2026-04-10 22:11 11.91964 100.64809 27851 ft 485 kts 179°
2026-04-10 22:11 11.88584 100.64726 28060 ft 487 kts 180°
2026-04-10 22:11 11.85193 100.64642 28259 ft 488 kts 179°
2026-04-10 22:11 11.81789 100.64559 28484 ft 490 kts 179°
2026-04-10 22:12 11.78382 100.64476 28763 ft 489 kts 179°
2026-04-10 22:12 11.74981 100.64393 28870 ft 487 kts 179°
2026-04-10 22:12 11.71604 100.64306 28891 ft 484 kts 179°
2026-04-10 22:13 11.64881 100.64125 28890 ft 483 kts 179°
2026-04-10 22:13 11.58164 100.63947 28891 ft 483 kts 179°
2026-04-10 22:14 11.51448 100.63783 28894 ft 483 kts 179°
2026-04-10 22:14 11.44779 100.63620 28887 ft 483 kts 179°
2026-04-10 22:15 11.38062 100.63451 28879 ft 483 kts 179°
2026-04-10 22:15 11.31347 100.63278 28885 ft 483 kts 179°
2026-04-10 22:16 11.29079 100.63219 28888 ft 483 kts 179°
2026-04-10 22:16 11.25098 100.63145 28890 ft 482 kts 179°
2026-04-10 22:17 11.18395 100.62981 28878 ft 482 kts 179°
2026-04-10 22:17 11.11693 100.62788 28882 ft 482 kts 179°
2026-04-10 22:18 11.04989 100.62606 28878 ft 482 kts 179°
2026-04-10 22:18 10.98279 100.62443 28877 ft 482 kts 179°
2026-04-10 22:19 10.91568 100.62278 28874 ft 482 kts 179°
2026-04-10 22:19 10.84861 100.62110 28873 ft 482 kts 179°
2026-04-10 22:20 10.78152 100.61938 28871 ft 482 kts 179°
2026-04-10 22:20 10.71442 100.61772 28876 ft 482 kts 180°
2026-04-10 22:21 10.64736 100.61606 28878 ft 482 kts 180°
2026-04-10 22:21 10.58035 100.61437 28879 ft 482 kts 180°
2026-04-10 22:22 10.51331 100.61267 28876 ft 482 kts 180°
2026-04-10 22:22 10.44632 100.61103 28823 ft 482 kts 180°
2026-04-10 22:22 10.41277 100.61022 28563 ft 482 kts 180°
2026-04-10 22:23 10.37925 100.60911 28157 ft 480 kts 182°
2026-04-10 22:23 10.34664 100.60252 26939 ft 480 kts 198°
2026-04-10 22:23 10.31693 100.58737 25732 ft 476 kts 214°
2026-04-10 22:23 10.29119 100.56655 24594 ft 471 kts 218°
2026-04-10 22:24 10.26613 100.54543 23511 ft 468 kts 218°
2026-04-10 22:24 10.24113 100.52451 22232 ft 462 kts 218°
2026-04-10 22:24 10.21648 100.50402 21045 ft 454 kts 218°
2026-04-10 22:24 10.19213 100.48390 19905 ft 446 kts 218°
2026-04-10 22:25 10.16826 100.46423 18832 ft 439 kts 218°
2026-04-10 22:25 10.14497 100.44502 18266 ft 420 kts 218°
2026-04-10 22:25 10.12311 100.42695 18141 ft 391 kts 217°
2026-04-10 22:25 10.10278 100.41013 18009 ft 365 kts 217°
2026-04-10 22:26 10.08358 100.39423 17604 ft 350 kts 218°
2026-04-10 22:26 10.06494 100.37879 17013 ft 343 kts 218°
2026-04-10 22:26 10.04656 100.36359 16379 ft 338 kts 218°
2026-04-10 22:26 10.02844 100.34860 15726 ft 335 kts 218°
2026-04-10 22:27 10.01048 100.33374 15107 ft 332 kts 218°
2026-04-10 22:27 9.99267 100.31900 14490 ft 329 kts 219°
2026-04-10 22:27 9.97506 100.30447 13919 ft 324 kts 219°
2026-04-10 22:27 9.95765 100.29011 13316 ft 321 kts 219°
2026-04-10 22:28 9.94022 100.27573 12799 ft 326 kts 219°
2026-04-10 22:28 9.92259 100.26114 12373 ft 323 kts 219°
2026-04-10 22:28 9.90549 100.24696 11875 ft 314 kts 219°
2026-04-10 22:28 9.88866 100.23303 11314 ft 310 kts 219°
2026-04-10 22:29 9.87202 100.21931 10737 ft 307 kts 219°
2026-04-10 22:29 9.85555 100.20571 10177 ft 304 kts 219°
2026-04-10 22:29 9.83928 100.19228 9608 ft 300 kts 219°
2026-04-10 22:29 9.82312 100.17894 8995 ft 298 kts 218°
2026-04-10 22:30 9.80715 100.16574 8381 ft 295 kts 218°
2026-04-10 22:30 9.79143 100.15277 7568 ft 289 kts 218°
2026-04-10 22:30 9.77621 100.14019 6958 ft 277 kts 218°
2026-04-10 22:30 9.76148 100.12802 6284 ft 270 kts 217°
2026-04-10 22:31 9.74713 100.11616 5593 ft 263 kts 218°
2026-04-10 22:31 9.73273 100.10524 4936 ft 254 kts 208°
2026-04-10 22:31 9.71700 100.09782 4303 ft 244 kts 204°
2026-04-10 22:31 9.70192 100.09096 3740 ft 233 kts 206°
2026-04-10 22:32 9.68738 100.08433 3164 ft 225 kts 206°
2026-04-10 22:32 9.67337 100.07795 2633 ft 216 kts 205°
2026-04-10 22:32 9.66035 100.07199 2305 ft 199 kts 206°
2026-04-10 22:32 9.64824 100.06643 2007 ft 178 kts 206°
2026-04-10 22:33 9.63789 100.06168 1768 ft 151 kts 206°
2026-04-10 22:33 9.62893 100.05772 1566 ft 137 kts 201°
2026-04-10 22:33 9.61976 100.05603 1344 ft 133 kts 184°
2026-04-10 22:33 9.61058 100.05654 1115 ft 132 kts 178°
2026-04-10 22:34 9.60143 100.05755 927 ft 132 kts 175°
2026-04-10 22:34 9.59234 100.05867 795 ft 132 kts 174°
2026-04-10 22:34 9.58324 100.05949 636 ft 131 kts 179°
2026-04-10 22:34 9.57411 100.06007 422 ft 131 kts 175°
2026-04-10 22:35 9.56507 100.06089 242 ft 131 kts 175°
2026-04-10 22:35 9.55606 100.06172 69 ft 130 kts 175°
2026-04-10 22:35 9.54818 100.06249 53 ft 92 kts 175°
2026-04-10 22:35 9.54368 100.06290 50 ft 49 kts 175°
2026-04-10 22:36 9.54030 100.06321 53 ft 35 kts 175°
2026-04-10 22:36 9.53899 100.06314 53 ft 17 kts 192°
2026-04-10 22:36 9.53850 100.06337 53 ft 6 kts 90°
2026-04-10 22:36 9.53890 100.06336 50 ft 6 kts 351°
2026-04-10 22:37 9.53923 100.06331 53 ft 8 kts 354°
2026-04-10 22:37 9.53989 100.06324 50 ft 11 kts 354°
2026-04-10 22:37 9.54074 100.06315 53 ft 15 kts 354°
2026-04-10 22:37 9.54229 100.06298 53 ft 30 kts 355°
2026-04-10 22:38 9.54471 100.06276 49 ft 36 kts 354°
2026-04-10 22:38 9.54729 100.06249 53 ft 40 kts 354°
2026-04-10 22:38 9.55019 100.06219 53 ft 44 kts 354°
2026-04-10 22:38 9.55250 100.06199 53 ft 27 kts 354°
2026-04-10 22:39 9.55287 100.06130 53 ft 13 kts 266°
2026-04-10 22:39 9.55282 100.06069 53 ft 4 kts 264°
2026-04-10 22:39 9.55282 100.06067 53 ft 0 kts 266°